KE2LU Weather Reports


Display with metric or nautical units.
time (UTC)temp
F
wind
direction
speed
MPH
gust
MPH
rain 1hr
in
rain 24hr
in
rain mn
in
humidity
%
barometer
mb
20260507040502 42 282 1.0 2.0 0.00 0.73 0.00 97 1013.4
20260507040002 42 255 1.0 3.0 0.00 0.73 0.00 97 1013.4
20260507035502 42 279 1.0 3.0 0.00 0.73 0.73 97 1013.4
20260507035003 42 293 1.0 3.0 0.00 0.74 0.73 97 1013.4
20260507034502 42 273 0.0 2.0 0.00 0.74 0.73 97 1013.4
20260507034003 42 249 1.0 3.0 0.00 0.74 0.73 97 1013.4
20260507033002 42 259 0.0 3.0 0.00 0.75 0.73 97 1013.2
20260507032502 41 245 0.0 3.0 0.00 0.75 0.73 97 1013.2
20260507032002 41 221 0.0 1.0 0.00 0.75 0.73 97 1013.2
20260507031503 42 246 0.0 2.0 0.00 0.75 0.73 97 1013.4
20260507031003 42 265 0.0 1.0 0.00 0.75 0.73 97 1013.3
20260507025502 42 99 0.0 1.0 0.00 0.75 0.73 96 1013.2
20260507025002 42 294 0.0 3.0 0.00 0.75 0.73 97 1013.1
20260507024503 42 242 1.0 3.0 0.00 0.75 0.73 97 1013.2
20260507024003 42 278 1.0 3.0 0.00 0.75 0.73 96 1013.1
20260507023503 42 291 0.0 1.0 0.00 0.76 0.73 96 1013.0
20260507022503 42 261 1.0 3.0 0.00 0.76 0.73 96 1013.2
20260507022002 42 273 0.0 3.0 0.00 0.76 0.73 96 1013.3
20260507021003 41 221 0.0 2.0 0.00 0.77 0.73 96 1013.3
20260507020502 41 277 0.0 2.0 0.00 0.77 0.73 96 1013.2
20260507020003 41 243 0.0 3.0 0.00 0.78 0.73 96 1013.3
20260507015502 41 266 1.0 2.0 0.01 0.78 0.73 96 1013.2
20260507014503 41 255 0.0 1.0 0.01 0.79 0.73 95 1013.1
20260507014002 41 273 0.0 1.0 0.01 0.80 0.73 95 1013.1
20260507013503 41 258 1.0 3.0 0.02 0.80 0.73 95 1013.3
20260507013002 41 273 1.0 3.0 0.02 0.80 0.73 95 1013.3
20260507012002 41 282 1.0 3.0 0.02 0.80 0.73 95 1013.2
20260507011503 42 282 3.0 7.0 0.02 0.80 0.73 94 1013.1
20260507011003 42 295 3.0 7.0 0.02 0.80 0.73 94 1013.1
20260507010502 42 316 2.0 3.0 0.02 0.80 0.73 94 1013.0
20260507010003 42 312 1.0 3.0 0.02 0.80 0.73 94 1012.9
20260507005503 43 318 1.0 3.0 0.01 0.79 0.72 93 1012.9
20260507004002 44 322 2.0 6.0 0.01 0.80 0.72 93 1012.6
20260507003503 45 299 3.0 8.0 0.00 0.79 0.71 93 1012.5
20260507003002 45 293 3.0 5.0 0.00 0.79 0.71 93 1012.5
20260507002503 45 312 3.0 3.0 0.00 0.80 0.71 93 1012.4
20260507002003 45 326 2.0 3.0 0.00 0.80 0.71 92 1012.2
20260507001502 46 325 3.0 5.0 0.00 0.80 0.71 92 1012.2
20260507001003 46 319 2.0 3.0 0.00 0.80 0.71 92 1012.2
20260507000503 46 329 2.0 6.0 0.00 0.81 0.71 91 1012.1
20260506235502 47 330 2.0 3.0 0.00 0.81 0.71 90 1011.9
20260506235003 47 318 1.0 2.0 0.00 0.81 0.71 90 1011.8
20260506234503 47 291 1.0 2.0 0.00 0.81 0.71 89 1011.7
20260506233503 47 219 0.0 1.0 0.00 0.82 0.71 88 1011.6
20260506233003 48 174 0.0 0.0 0.00 0.83 0.71 88 1011.5
20260506232003 47 172 0.0 0.0 0.00 0.83 0.71 89 1011.4
20260506231503 47 172 0.0 0.0 0.00 0.84 0.71 88 1011.4
20260506231003 47 172 0.0 1.0 0.00 0.84 0.71 88 1011.4
20260506230503 47 124 0.0 0.0 0.00 0.84 0.71 88 1011.3
20260506230003 47 124 0.0 0.0 0.00 0.85 0.71 87 1011.3
20260506225503 47 124 0.0 1.0 0.00 0.85 0.71 87 1011.2
20260506225003 47 124 0.0 1.0 0.00 0.86 0.71 87 1011.0
20260506224503 47 134 0.0 1.0 0.00 0.87 0.71 87 1010.9
20260506224003 47 128 0.0 1.0 0.00 0.88 0.71 87 1011.0
20260506223503 47 136 0.0 0.0 0.00 0.88 0.71 87 1010.9
20260506223003 47 136 0.0 0.0 0.00 0.88 0.71 87 1010.9
20260506222503 47 136 0.0 1.0 0.00 0.88 0.71 87 1011.0
20260506222003 47 135 0.0 0.0 0.00 0.88 0.71 86 1010.9
20260506221503 47 135 0.0 0.0 0.00 0.88 0.71 86 1011.1
20260506220503 47 107 0.0 1.0 0.00 0.88 0.71 85 1010.7
20260506215503 48 89 1.0 3.0 0.00 0.88 0.71 84 1010.7
20260506215004 48 172 0.0 1.0 0.00 0.88 0.71 84 1010.9
20260506214003 48 238 0.0 0.0 0.00 0.88 0.71 83 1011.1
20260506213503 48 240 0.0 1.0 0.00 0.88 0.71 83 1011.0
20260506213004 48 293 0.0 1.0 0.00 0.88 0.71 84 1011.0
20260506212503 48 293 0.0 1.0 0.00 0.88 0.71 85 1010.9
20260506212003 47 295 0.0 1.0 0.00 0.88 0.71 84 1010.9
20260506211503 47 296 1.0 1.0 0.00 0.88 0.71 84 1010.9
20260506211003 47 33 1.0 1.0 0.00 0.88 0.71 84 1010.9
20260506210503 47 31 1.0 2.0 0.00 0.88 0.71 84 1010.9
20260506210003 47 79 0.0 2.0 0.00 0.88 0.71 86 1010.9
20260506205503 46 123 1.0 2.0 0.00 0.88 0.71 86 1010.7
20260506205003 46 120 1.0 2.0 0.00 0.88 0.71 86 1010.7
20260506204504 46 96 0.0 1.0 0.00 0.88 0.71 86 1010.8
20260506203504 46 79 1.0 2.0 0.00 0.88 0.71 86 1010.7
20260506203003 46 74 1.0 2.0 0.00 0.88 0.71 86 1010.7
20260506202503 46 75 1.0 2.0 0.00 0.88 0.71 86 1010.7
20260506202003 46 37 2.0 3.0 0.00 0.88 0.71 86 1010.7
20260506201503 46 316 1.0 3.0 0.00 0.88 0.71 86 1010.9
20260506200503 46 27 0.0 3.0 0.00 0.88 0.71 86 1010.9
20260506200004 46 347 1.0 3.0 0.00 0.88 0.71 87 1010.9
20260506195004 46 306 3.0 3.0 0.00 0.88 0.71 87 1010.7
20260506194503 46 16 3.0 3.0 0.00 0.88 0.71 86 1010.7
20260506194003 46 294 2.0 5.0 0.00 0.88 0.71 86 1010.8
20260506193504 46 18 2.0 3.0 0.00 0.88 0.71 87 1010.7
20260506193003 46 297 2.0 5.0 0.00 0.88 0.71 87 1010.7
20260506192503 46 341 2.0 5.0 0.00 0.88 0.71 87 1010.6
20260506191503 45 18 3.0 6.0 0.00 0.88 0.71 88 1010.8
20260506191003 45 334 3.0 6.0 0.00 0.88 0.71 87 1010.8
20260506190503 45 323 3.0 5.0 0.00 0.88 0.71 87 1010.8
20260506190004 45 338 3.0 7.0 0.00 0.88 0.71 87 1010.8
20260506185503 45 358 2.0 6.0 0.00 0.88 0.71 89 1010.8
20260506185003 45 305 2.0 5.0 0.00 0.88 0.71 90 1010.7
20260506184503 45 355 3.0 5.0 0.00 0.88 0.71 89 1010.6
20260506184004 45 330 5.0 6.0 0.00 0.88 0.71 89 1010.7
20260506183503 45 5 3.0 5.0 0.00 0.88 0.71 91 1010.7
20260506183003 44 332 4.0 6.0 0.00 0.88 0.71 91 1010.6
20260506182503 44 332 4.0 7.0 0.00 0.88 0.71 92 1010.7
20260506182003 44 11 5.0 9.0 0.00 0.88 0.71 92 1011.0
20260506181503 44 0 4.0 8.0 0.00 0.88 0.71 92 1010.8
20260506181003 44 7 5.0 7.0 0.00 0.88 0.71 92 1011.1
20260506180503 44 318 3.0 9.0 0.00 0.88 0.71 92 1011.0
20260506180004 44 325 5.0 7.0 0.00 0.88 0.71 93 1010.8
20260506175503 44 341 5.0 8.0 0.00 0.88 0.71 93 1010.8
20260506175004 44 323 5.0 8.0 0.00 0.88 0.71 93 1010.7
20260506174503 44 330 4.0 7.0 0.00 0.88 0.71 94 1010.5
20260506174003 43 324 6.0 8.0 0.00 0.88 0.71 93 1010.5
20260506173503 44 19 3.0 7.0 0.00 0.88 0.71 94 1010.4
20260506172503 44 14 3.0 5.0 0.00 0.88 0.71 95 1010.2
20260506172003 43 338 3.0 6.0 0.00 0.88 0.71 94 1010.1
20260506171503 43 357 4.0 8.0 0.00 0.88 0.71 94 1010.1
20260506170503 43 1 5.0 6.0 0.00 0.88 0.71 94 1010.2
20260506170003 43 324 3.0 9.0 0.00 0.88 0.71 95 1010.0
20260506165503 44 2 6.0 10.0 0.00 0.88 0.71 94 1010.0
20260506165003 44 358 5.0 8.0 0.00 0.88 0.71 95 1010.2
20260506164003 44 333 4.0 8.0 0.00 0.88 0.71 95 1010.0
20260506163503 44 13 6.0 9.0 0.00 0.88 0.71 95 1009.9
20260506163004 44 50 4.0 9.0 0.00 0.88 0.71 95 1009.9
20260506162503 44 0 3.0 6.0 0.00 0.88 0.71 96 1009.9
20260506162003 43 330 4.0 8.0 0.00 0.88 0.71 96 1010.0
20260506161503 43 18 5.0 7.0 0.00 0.88 0.71 96 1009.9
20260506161003 43 342 2.0 5.0 0.01 0.88 0.71 96 1010.0
20260506160503 43 358 3.0 7.0 0.01 0.88 0.71 96 1010.1
20260506160003 43 349 2.0 7.0 0.01 0.88 0.71 96 1010.1
20260506155503 43 17 5.0 9.0 0.01 0.88 0.71 96 1010.1
20260506155003 43 16 3.0 6.0 0.01 0.88 0.71 96 1010.1
20260506154003 43 352 2.0 7.0 0.01 0.88 0.71 96 1009.9
20260506153503 43 337 3.0 7.0 0.01 0.88 0.71 96 1009.8
20260506153004 43 350 3.0 7.0 0.01 0.88 0.71 96 1009.9
20260506152503 43 12 2.0 3.0 0.01 0.88 0.71 96 1010.0
20260506152003 43 8 3.0 9.0 0.01 0.88 0.71 96 1009.9
20260506151503 43 352 2.0 6.0 0.01 0.88 0.71 96 1009.9
20260506150504 43 341 4.0 7.0 0.00 0.87 0.70 96 1009.8
20260506150003 43 27 2.0 6.0 0.00 0.87 0.70 96 1009.8
20260506145504 43 357 5.0 7.0 0.00 0.87 0.70 95 1009.8
20260506145003 43 34 1.0 3.0 0.00 0.87 0.70 96 1009.6
20260506143504 43 53 3.0 6.0 0.01 0.87 0.70 96 1009.5
20260506142504 43 55 4.0 8.0 0.01 0.87 0.70 96 1009.3
20260506142003 43 29 3.0 7.0 0.01 0.87 0.70 96 1009.3
20260506141003 43 56 5.0 8.0 0.01 0.87 0.70 95 1009.4
20260506140004 43 44 2.0 6.0 0.01 0.87 0.70 96 1009.5
20260506135503 43 68 3.0 8.0 0.02 0.87 0.70 96 1009.4
20260506135004 43 41 5.0 9.0 0.02 0.87 0.70 96 1009.5
20260506134504 43 58 3.0 7.0 0.01 0.86 0.69 96 1009.6
20260506134004 43 42 2.0 6.0 0.01 0.86 0.69 96 1009.5
20260506133504 43 46 3.0 10.0 0.01 0.86 0.69 96 1009.4
20260506133003 43 33 2.0 6.0 0.01 0.86 0.69 96 1009.3
20260506132504 43 35 2.0 6.0 0.01 0.86 0.69 96 1009.2
20260506131504 43 67 5.0 8.0 0.02 0.86 0.69 96 1009.2
20260506131004 43 70 3.0 8.0 0.02 0.86 0.69 96 1009.2
20260506130503 43 66 3.0 5.0 0.02 0.86 0.69 97 1009.2
20260506130005 43 75 3.0 6.0 0.03 0.86 0.69 97 1009.2
20260506125001 43 74 4.0 7.0 0.02 0.85 0.68 97 1009.3
20260506124502 42 66 3.0 6.0 0.03 0.85 0.68 97 1009.4
20260506124002 42 63 3.0 6.0 0.03 0.85 0.68 97 1009.3
20260506123502 42 64 3.0 7.0 0.03 0.85 0.68 97 1009.2
20260506123001 42 56 3.0 7.0 0.03 0.85 0.68 97 1009.2
20260506122501 42 72 3.0 6.0 0.03 0.85 0.68 97 1009.2
20260506122002 42 71 2.0 5.0 0.03 0.85 0.68 97 1009.3
20260506121002 42 68 4.0 5.0 0.03 0.84 0.67 97 1009.4
20260506120502 42 70 4.0 7.0 0.03 0.84 0.67 97 1009.4
20260506120002 42 65 3.0 5.0 0.03 0.83 0.66 97 1009.5
20260506115503 42 58 4.0 9.0 0.03 0.83 0.66 97 1009.4
20260506114501 42 69 5.0 7.0 0.03 0.82 0.65 97 1009.3
20260506113502 42 72 4.0 10.0 0.05 0.82 0.65 97 1009.2
20260506113001 42 61 5.0 8.0 0.06 0.82 0.65 97 1009.1
20260506112502 42 75 7.0 12.0 0.06 0.82 0.65 97 1008.8
20260506112002 43 61 6.0 10.0 0.07 0.82 0.65 97 1008.7
20260506111502 43 88 6.0 12.0 0.08 0.82 0.65 98 1009.0
20260506111002 43 66 5.0 10.0 0.08 0.81 0.64 98 1009.1
20260506110502 43 97 3.0 6.0 0.09 0.81 0.64 98 1009.0
20260506110002 43 65 3.0 6.0 0.08 0.80 0.63 98 1009.1
20260506105502 43 73 4.0 6.0 0.09 0.80 0.63 98 1009.2
20260506105001 43 67 3.0 8.0 0.09 0.79 0.62 98 1009.1
20260506104001 43 54 3.0 8.0 0.09 0.78 0.61 98 1009.2
20260506103502 43 66 3.0 5.0 0.09 0.77 0.60 98 1009.5
20260506103002 43 74 1.0 2.0 0.08 0.76 0.59 98 1009.6
20260506102002 43 41 2.0 5.0 0.07 0.75 0.58 98 1009.3
20260506101502 43 51 2.0 3.0 0.06 0.74 0.57 98 1009.3
20260506101001 43 19 2.0 5.0 0.06 0.73 0.56 98 1009.4
20260506100001 43 44 2.0 5.0 0.05 0.72 0.55 98 1009.4
20260506095002 43 57 1.0 6.0 0.04 0.70 0.53 98 1009.5
20260506094501 43 47 1.0 7.0 0.03 0.69 0.52 98 1009.4
20260506094002 43 40 3.0 7.0 0.04 0.69 0.52 98 1009.2
20260506093502 43 77 1.0 5.0 0.04 0.68 0.51 98 1009.2
20260506093002 43 9 2.0 3.0 0.04 0.68 0.51 98 1009.1
20260506092501 43 46 2.0 8.0 0.05 0.68 0.51 98 1009.0
20260506092002 43 43 3.0 5.0 0.06 0.68 0.51 98 1008.8
20260506091502 43 43 5.0 9.0 0.06 0.68 0.51 98 1008.7
20260506091001 43 61 3.0 5.0 0.06 0.67 0.50 98 1008.7
20260506090502 43 57 3.0 5.0 0.07 0.67 0.50 98 1009.0
20260506085502 43 64 2.0 3.0 0.08 0.67 0.50 98 1009.3
20260506085002 43 64 2.0 3.0 0.08 0.66 0.49 98 1009.3
20260506084502 43 42 2.0 5.0 0.09 0.66 0.49 98 1009.4
20260506083502 43 70 3.0 6.0 0.11 0.64 0.47 98 1009.2
20260506082002 43 73 1.0 3.0 0.13 0.62 0.45 98 1009.6
20260506081502 43 76 2.0 5.0 0.13 0.62 0.45 97 1009.5
20260506081002 43 68 2.0 3.0 0.13 0.61 0.44 97 1009.5
20260506080502 43 102 2.0 6.0 0.13 0.60 0.43 97 1009.6
20260506073502 44 75 3.0 7.0 0.11 0.53 0.36 98 1009.5
20260506073003 44 57 5.0 7.0 0.11 0.52 0.35 98 1009.2
20260506072502 44 72 4.0 8.0 0.12 0.51 0.34 98 1009.0
20260506072003 45 73 3.0 6.0 0.12 0.49 0.32 97 1009.1
20260506071502 45 53 2.0 6.0 0.13 0.49 0.32 97 1009.1
20260506071002 45 60 4.0 7.0 0.14 0.48 0.31 97 1009.2
20260506070502 45 49 3.0 6.0 0.14 0.47 0.30 97 1009.1
20260506062502 46 42 3.0 8.0 0.11 0.39 0.22 97 1009.8
20260506062002 46 355 2.0 6.0 0.10 0.37 0.20 97 1010.0
20260506061502 46 19 1.0 5.0 0.10 0.36 0.19 97 1009.8
20260506061002 46 43 3.0 6.0 0.09 0.34 0.17 97 1009.6
20260506060502 46 67 3.0 6.0 0.09 0.33 0.16 97 1009.8
20260506051002 46 100 1.0 2.0 0.07 0.25 0.08 97 1010.0
20260506045002 46 105 1.0 3.0 0.06 0.22 0.05 97 1010.2
20260506044502 46 113 2.0 3.0 0.05 0.21 0.04 97 1010.1
20260506044002 46 78 1.0 3.0 0.04 0.20 0.03 97 1010.1
20260506043502 46 113 0.0 2.0 0.05 0.20 0.03 97 1010.1
20260506042502 46 82 2.0 3.0 0.05 0.20 0.03 97 1009.7
20260506042002 46 76 2.0 3.0 0.04 0.19 0.02 97 1009.7
20260506041503 46 78 2.0 3.0 0.04 0.19 0.02 97 1009.7